Вернуться в каталог

FENGYUN 1C DEB

АктивенSSO
NORAD 32459·DEBRIS·🇨🇳 China

Запущен May 10, 1999 с Taiyuan Satellite Launch Center

Loading…

Ближайшие Пролёты (ближайшие 24 часа)

TLE

СвежийSource: Space-Track

Эпоха: Sep 14, 2026, 06:10 UTC

1 32459U 99025DBX 26257.25748530  .00001572  00000-0  36146-3 0  9992
2 32459  98.2935 269.6930 0211540  71.5881 290.8183 14.43965121985255

Отслеживайте FENGYUN 1C DEB в реальном времени с AllMySat

Download on the App Store